Regional Weather Roundup
Issued by NWS

Home | Current Version | Previous Version | Graphics & Text | Print | Product List | Glossary On
Versions: 1 2 3 4 5 6 7 8 9 10 11 12 13 14 15 16 17 18 19 20 21 22 23 24 25 26 27 28 29 30 31 32 33 34 35 36 37 38 39 40 41 42 43 44 45 46 47 48 49 50
575
ASUS44 KJAN 300010
RWRMS

MISSISSIPPI HOURLY WEATHER ROUNDUP
NATIONAL WEATHER SERVICE JACKSON MS
700 PM CDT TUE JUL 29 2014

NOTE: "FAIR: INDICATES FEW OR NO CLOUDS BELOW 12,000 FEET WITH NO
SIGNIFICANT WEATHER AND/OR OBSTRUCTIONS TO VISIBILITY.

MSZ001>002-007>008-010>013-018>021-025>028-034>036-300100-
NORTHWEST MISSISSIPPI

CITY           SKY/WX    TMP DP  RH WIND       PRES   REMARKS
CLARKSDALE     FAIR      77  59  53 N12       30.10S
CLEVELAND      FAIR      79  62  56 N8        30.08R
GREENWOOD      SUNNY     78  58  49 N8        30.07S
6HR MIN TEMP:  78; 6HR MAX TEMP:  84;

GREENVILLE     SUNNY     80  61  52 N8        30.07S
6HR MIN TEMP:  80; 6HR MAX TEMP:  86;

GRENADA        FAIR      77  57  50 NE3       30.08S
OLIVE BRANCH   MOSUNNY   73  57  56 N8        30.10F
OXFORD         FAIR      73  54  49 N6        30.11S
TUNICA         CLEAR     77  55  47 N10       30.10F
$$

MSZ003>006-009-014>017-022>024-029>033-037>039-300100-
NORTHEAST MISSISSIPPI

CITY           SKY/WX    TMP DP  RH WIND       PRES   REMARKS
BELMONT        FAIR      73  56  55 N5        30.09S
COLUMBUS AFB   SUNNY     77  55  46 N8        30.07S
6HR MIN TEMP:  77; 6HR MAX TEMP:  81;

CORINTH        FAIR      73  55  53 N3        30.09S
GOLDN TRIANGLE SUNNY     79  55  44 N8        30.08R
STARKVILLE     FAIR      77  55  47 N7        30.07R
TUPELO         SUNNY     75  54  47 NE12      30.08S
6HR MIN TEMP:  75; 6HR MAX TEMP:  80;

$$

MSZ040-058-300100-
CENTRAL MISSISSIPPI

CITY           SKY/WX    TMP DP  RH WIND       PRES   REMARKS
JACKSON INTL   MOSUNNY   82  61  48 N14       30.05R
6HR MIN TEMP:  82; 6HR MAX TEMP:  89;

JACKSON HAWKNS SUNNY     83  60  45 N8        30.06R
6HR MIN TEMP:  83; 6HR MAX TEMP:  88;

MERIDIAN KEY   SUNNY     81  61  50 N10       30.03R
6HR MIN TEMP:  81; 6HR MAX TEMP:  88;

MERIDIAN NAS   SUNNY     80  58  46 N13       30.04R
6HR MIN TEMP:  80; 6HR MAX TEMP:  87;

RAYMOND        FAIR      81  75  83 N3        30.06R
VICKSBURG      SUNNY     83  65  54 N9        30.05S
6HR MIN TEMP:  83; 6HR MAX TEMP:  90;

$$

MSZ059>079-300100-
SOUTH MISSISSIPPI

CITY           SKY/WX    TMP DP  RH WIND       PRES   REMARKS
BROOKHAVEN     FAIR      81  68  65 N6        30.06R
COLUMBIA       FAIR      84  66  54 N5        30.01R
HATTIESBURG    MOSUNNY   87  63  44 N7        30.01R
6HR MIN TEMP:  86; 6HR MAX TEMP:  91;

MCCOMB         SUNNY     85  64  49 NW9       30.03S
6HR MIN TEMP:  84; 6HR MAX TEMP:  89;

NATCHEZ        PTSUNNY   82  66  57 N9        30.05R
6HR MIN TEMP:  82; 6HR MAX TEMP:  88;

PINE BELT      SUNNY     84  63  48 NW8       30.03S
6HR MIN TEMP:  84; 6HR MAX TEMP:  90;

$$

MSZ080>082-300100-
COASTAL MISSISSIPPI

CITY           SKY/WX    TMP DP  RH WIND       PRES   REMARKS
BAY ST LOUIS   MOSUNNY  N/A N/A N/A VRB3      30.00S
BILOXI         CLEAR     86  64  46 VRB3      29.98F
6HR MIN TEMP:  86; 6HR MAX TEMP:  90;

PASCAGOULA     CLEAR     86  66  51 NW3       29.98S
6HR MIN TEMP:  85; 6HR MAX TEMP:  90;

GULFPORT       CLEAR     89  63  41 N9        29.98S HX  90
6HR MIN TEMP:  89; 6HR MAX TEMP:  93;

$$



USA.gov is the U.S. government's official web portal to all federal, state and local government web resources and services.